TimeEDT,TemperatureF,Dew PointF,Humidity,Sea Level PressureIn,VisibilityMPH,Wind Direction,Wind SpeedMPH,Gust SpeedMPH,PrecipitationIn,Events,Conditions,WindDirDegrees,DateUTC
12:53 AM,51.1,46.9,86,30.06,10.0,SW,8.1,-,0.05,Rain,Light Rain,230,2012-09-23 04:53:00
1:53 AM,48.9,46.0,90,30.07,7.0,SW,10.4,-,0.04,Rain,Rain,230,2012-09-23 05:53:00
2:53 AM,50.0,46.0,86,30.08,10.0,SSW,12.7,-,0.02,,Mostly Cloudy,210,2012-09-23 06:53:00
3:53 AM,48.0,45.0,89,30.09,10.0,SSW,6.9,-,N/A,,Mostly Cloudy,210,2012-09-23 07:53:00
4:53 AM,48.9,46.0,90,30.10,10.0,SW,8.1,-,0.00,,Overcast,220,2012-09-23 08:53:00
5:53 AM,48.0,45.0,89,30.11,6.0,SSW,5.8,-,0.01,Rain,Light Rain,200,2012-09-23 09:53:00
6:53 AM,46.9,44.1,90,30.13,4.0,SW,11.5,-,0.07,Rain,Rain,220,2012-09-23 10:53:00
7:53 AM,46.9,45.0,93,30.15,7.0,South,8.1,-,0.09,,Overcast,180,2012-09-23 11:53:00
8:53 AM,46.9,45.0,93,30.15,9.0,South,8.1,-,0.01,,Overcast,190,2012-09-23 12:53:00
9:53 AM,48.9,46.0,90,30.16,10.0,South,8.1,-,N/A,,Mostly Cloudy,190,2012-09-23 13:53:00
10:53 AM,53.1,46.9,80,30.17,10.0,SW,9.2,-,N/A,,Overcast,230,2012-09-23 14:53:00
11:53 AM,53.1,48.0,83,30.17,10.0,WSW,9.2,-,N/A,,Mostly Cloudy,240,2012-09-23 15:53:00
12:53 PM,52.0,46.0,80,30.17,10.0,South,5.8,-,0.03,,Overcast,190,2012-09-23 16:53:00
1:15 PM,51.8,46.4,82,30.17,10.0,SW,10.4,-,N/A,,Overcast,230,2012-09-23 17:15:00
1:39 PM,50.0,44.6,82,30.17,4.0,SSW,13.8,21.9,0.02,Rain,Rain,210,2012-09-23 17:39:00
1:53 PM,51.1,44.1,77,30.17,10.0,SSW,6.9,-,0.02,,Overcast,210,2012-09-23 17:53:00
2:22 PM,51.8,44.6,76,30.16,3.0,NW,10.4,21.9,0.04,Rain,Rain,310,2012-09-23 18:22:00
2:53 PM,55.0,46.0,72,30.15,10.0,NW,5.8,-,0.04,,Overcast,310,2012-09-23 18:53:00
3:53 PM,55.0,42.1,62,30.15,10.0,West,16.1,-,N/A,,Overcast,270,2012-09-23 19:53:00
4:53 PM,53.1,39.9,61,30.16,10.0,SW,13.8,-,N/A,,Overcast,220,2012-09-23 20:53:00
5:53 PM,54.0,42.1,64,30.16,10.0,West,15.0,18.4,0.01,,Overcast,260,2012-09-23 21:53:00
6:24 PM,53.6,44.6,72,30.15,10.0,NW,24.2,29.9,N/A,,Overcast,310,2012-09-23 22:24:00
6:53 PM,53.1,44.1,71,30.15,10.0,NW,10.4,-,0.00,,Mostly Cloudy,310,2012-09-23 22:53:00
7:53 PM,53.1,43.0,69,30.16,10.0,WSW,9.2,-,N/A,,Mostly Cloudy,240,2012-09-23 23:53:00
8:53 PM,52.0,44.1,74,30.17,10.0,WNW,15.0,19.6,0.00,Rain,Light Rain,300,2012-09-24 00:53:00
9:12 PM,53.6,42.8,67,30.17,10.0,NW,10.4,-,0.00,Rain,Light Rain,320,2012-09-24 01:12:00
9:53 PM,50.0,44.1,80,30.20,3.0,WNW,12.7,25.3,0.10,Rain,Heavy Rain,290,2012-09-24 01:53:00
10:53 PM,48.9,46.0,90,30.19,4.0,South,3.5,-,0.07,Rain,Light Rain,170,2012-09-24 02:53:00
11:30 PM,46.4,42.8,87,30.19,8.0,SSE,8.1,-,0.02,Rain,Light Rain,160,2012-09-24 03:30:00
11:53 PM,46.9,44.1,90,30.19,10.0,South,8.1,-,0.02,Thunderstorm,Thunderstorm,170,2012-09-24 03:53:00